Regional Weather Roundup
Issued by NWS

Home | Current Version | Previous Version | Text Only | Print | Product List | Glossary On
Versions: 1 2 3 4 5 6 7 8 9 10 11 12 13 14 15 16 17 18 19 20 21 22 23 24 25 26 27 28 29 30 31 32 33 34 35 36 37 38 39 40 41 42 43 44 45 46 47 48 49 50
000
ASUS43 KMKX 250559
RWRWI

WISCONSIN REGIONAL WEATHER ROUNDUP
NATIONAL WEATHER SERVICE MILWAUKEE/SULLIVAN WI
100 AM CDT FRI JUL 25 2014

NOTE: "FAIR" INDICATES FEW OR NO CLOUDS BELOW 12,000 FEET WITH NO
SIGNIFICANT WEATHER AND/OR OBSTRUCTIONS TO VISIBILITY.

WIZ001-002-006>008-014>016-023>028-250700-
NORTHWEST WISCONSIN

CITY           SKY/WX    TMP DP  RH WIND       PRES   REMARKS
SUPERIOR ARPT  CLEAR     60  56  88 NE7       29.90S
ASHLAND        CLOUDY    61  59  93 CALM      29.94R
6HR MIN TEMP:  60; 6HR MAX TEMP:  69;

HAYWARD        MOCLDY    66  58  75 S6        29.94S
6HR MIN TEMP:  66; 6HR MAX TEMP:  72; 6HR PCP: TRACE;

SIREN          MOCLDY    67  59  74 S6        29.94R
RICE LAKE      PTCLDY    64  57  78 S6        29.96F
6HR MIN TEMP:  64; 6HR MAX TEMP:  74;

LADYSMITH      CLOUDY    66  58  74 S6        29.97F
6HR MIN TEMP:  62; 6HR MAX TEMP:  74;

EAU CLAIRE     NOT AVBL
MENOMONIE      CLEAR     66  61  82 SE8       29.95F
6HR MIN TEMP:  64; 6HR MAX TEMP:  76;

NEW RICHMOND   PTCLDY    66  59  79 S9        29.95S
OSCEOLA        PTCLDY    66  62  88 S5        29.96S
$$

WIZ003>005-009-010-017-018-250700-
NORTH CENTRAL WISCONSIN

CITY           SKY/WX    TMP DP  RH WIND       PRES   REMARKS
WOODRUFF       MOCLDY    62  54  74 CALM      29.99R
RHINELANDER    CLOUDY    62  54  74 CALM      30.01S
6HR MIN TEMP:  55; 6HR MAX TEMP:  70;

EAGLE RIVER    MOCLDY    59  55  86 CALM      29.99S
LAND O LAKES   MOCLDY    54  53  96 CALM      30.00S
PHILLIPS       MOCLDY    64  56  76 S5        29.98R
6HR MIN TEMP:  61; 6HR MAX TEMP:  71;

TOMAHAWK       CLOUDY    60  55  84 CALM      30.01R
6HR MIN TEMP:  56; 6HR MAX TEMP:  68;

MEDFORD        CLOUDY    61  58  91 S6        30.00S
MERRILL        CLOUDY    59  57  93 S3        29.98F
$$

WIZ029-030-035-036-043>047-250700-
CENTRAL WISCONSIN

CITY           SKY/WX    TMP DP  RH WIND       PRES   REMARKS
WAUSAU         CLOUDY    65  58  78 SW3       29.99S
6HR MIN TEMP:  62; 6HR MAX TEMP:  73; 6HR PCP: TRACE;

MOSINEE        MOCLDY    63  59  88 S7        30.02R
MARSHFIELD     PTCLDY    61  58  90 S7        30.01S
6HR MIN TEMP:  61; 6HR MAX TEMP:  73;

STEVENS POINT  MOCLDY    62  55  76 S3        30.01F
WAUPACA        MOCLDY    64  55  72 S3        30.02S
6HR MIN TEMP:  64; 6HR MAX TEMP:  76;

WAUTOMA        NOT AVBL
WISC RAPIDS    PTCLDY    63  56  78 S6        30.03R
6HR MIN TEMP:  61; 6HR MAX TEMP:  75;

CAMP DOUGLAS   NOT AVBL
$$

WIZ011>013-019>022-031-037>040-048>050-250700-
NORTHEAST WISCONSIN

CITY           SKY/WX    TMP DP  RH WIND       PRES   REMARKS
ANTIGO         CLOUDY    58  55  89 S6        30.00F
STURGEON BAY   CLOUDY    61  45  55 S10       30.02S
6HR MIN TEMP:  61; 6HR MAX TEMP:  66;

GREEN BAY      MOCLDY    63  45  51 S9        30.02F
6HR MIN TEMP:  62; 6HR MAX TEMP:  74;

MANITOWOC      NOT AVBL
APPLETON       MOCLDY    63  45  51 S8        30.03F
CLINTONVILLE   CLOUDY    63  50  63 S6        30.00F
OSHKOSH        PTCLDY    60  49  66 S10       30.02F
6HR MIN TEMP:  60; 6HR MAX TEMP:  73;

$$

WIZ032>034-041-042-053>061-250700-
SOUTHWEST WISCONSIN

CITY           SKY/WX    TMP DP  RH WIND       PRES   REMARKS
LA CROSSE      CLEAR     68  60  75 SE6       30.00S
6HR MIN TEMP:  68; 6HR MAX TEMP:  78;

SPARTA         PTCLDY    58  55  91 CALM      30.03S
VIROQUA        FAIR      64  59  83 S3        30.04S
BOSCOBEL       CLEAR     63  59  87 CALM      30.04R
6HR MIN TEMP:  62; 6HR MAX TEMP:  76;

PRAIRIE DU CHI CLEAR     63  58  82 CALM      30.03R
PLATTEVILLE    FAIR      62  57  82 S5        30.06R
$$

WIZ056-057-062-063-064-067-068-250700-
SOUTH CENTRAL WISCONSIN

CITY           SKY/WX    TMP DP  RH WIND       PRES   REMARKS
BARABOO/DELLS  CLEAR     60  55  82 S3        30.04R
LONE ROCK      NOT AVBL
WATERTOWN      CLEAR     57  47  70 CALM      30.05R
MADISON        CLEAR     65  55  70 S8        30.06R
6HR MIN TEMP:  64; 6HR MAX TEMP:  75;

MIDDLETON      FAIR      62  55  76 SW3       30.05R
MONROE         CLEAR     61  55  82 S8        30.06R
JANESVILLE     CLEAR     61  46  59 S6        30.06R
$$

WIZ051-052-058>065-066-070>072-250700-
SOUTHEAST WISCONSIN

CITY           SKY/WX    TMP DP  RH WIND       PRES   REMARKS
MILWAUKEE      PTCLDY    61  44  53 CALM      30.05S
6HR MIN TEMP:  60; 6HR MAX TEMP:  66;

WAUKESHA       PTCLDY    57  43  58 S6        30.06S
MILWAUKEE/TIMM CLEAR     59  41  51 CALM      30.06S
RACINE         CLEAR     58  52  80 SW6       30.07R
6HR MIN TEMP:  57; 6HR MAX TEMP:  67;

BURLINGTON     CLEAR     51  49  93 CALM      30.05S
KENOSHA        CLEAR     58  51  78 S3        30.05S
6HR MIN TEMP:  58; 6HR MAX TEMP:  68;

FOND DU LAC    PTCLDY    57  47  69 S6        30.04S
6HR MIN TEMP:  57; 6HR MAX TEMP:  73;

SHEBOYGAN      PTCLDY    55  48  77 CALM      30.05R
6HR MIN TEMP:  54; 6HR MAX TEMP:  66;

WEST BEND      PTCLDY    57  41  54 CALM      30.05R
JUNEAU         CLEAR     58  42  53 S3        30.07R
$$

LSZ147-162-250700-
LAKE SUPERIOR

STATION/POSITION TIME  TEMP    WIND        PRES    WAVE
                       AIR SEA DIR/SP/G            HT/PER
                 (UTC) (F)     (DEG/KT/KT) (MB)    (FT/S)
$$

LMZ867-665-643>646-250700-
LAKE MICHIGAN

STATION/POSITION TIME  TEMP    WIND        PRES    WAVE
                       AIR SEA DIR/SP/G            HT/PER
                 (UTC) (F)     (DEG/KT/KT) (MB)    (FT/S)
$$

TC  - TEMPERATURE IN CELSIUS
VSB - VISIBILITY IN STATUTE MILES
WCI - WIND CHILL INDEX
HX  - HEAT INDEX




USA.gov is the U.S. government's official web portal to all federal, state and local government web resources and services.